Big Bear City, CA

9:41 PM PST on December 13, 2019 (GMT -0800)
Big Bear City

Weather History for KL35 - June, 2019

Change the Weather History Date:

Wednesday, June 5, 2019

  Actual Average (KBUO) Record (KBUO)
Temperature  
Mean Temperature 57 °F -  
Max Temperature 73 °F 75 °F 80 °F (2001)
Min Temperature 41 °F 51 °F 46 °F (1999)
Degree Days  
Heating Degree Days 8    
Growing Degree Days 7 (Base 50)    
Moisture  
Dew Point 35 °F    
Average Humidity 46    
Maximum Humidity 81    
Minimum Humidity 22    
Precipitation  
Precipitation 0.00 in - - ()
Sea Level Pressure  
Sea Level Pressure 30.21 in    
Wind  
Wind Speed 2 mph (WSW)    
Max Wind Speed 13 mph    
Max Gust Speed 21 mph    
Visibility 10 miles    
Events      
Averages and records for this station are not official NWS values.
T = Trace of Precipitation, MM = Missing Value Source: NWS Daily Summary

Daily Weather History Graph

Daily Weather History Graph

Search for Another Location

Airport or City:

Astronomy

Jun. 05, 2019 Rise Set
Actual Time 5:35 AM PDT 7:56 PM PDT
Civil Twilight 5:06 AM PDT 8:25 PM PDT
Nautical Twilight 4:31 AM PDT 9:01 PM PDT
Astronomical Twilight 3:52 AM PDT 9:40 PM PDT
Moon 7:45 AM PDT (6/5) 10:27 PM PDT (6/5)
Length of Visible Light 15h 18m
Length of Day
14h 20m
Waxing Crescent, 7% of the Moon is Illuminated
Jun 5
Waxing Crescent
Jun 9
First Quarter
Jun 17
Full
Jun 25
Last Quarter
Jul 2
New

Hourly Weather History & Observations

Time (PDT) Temp. Dew Point Humidity Pressure Visibility Wind Dir Wind Speed Gust Speed Precip Events Conditions
12:15 AM 46.4 °F 35.6 °F 66% 30.21 in 10.0 mi Calm Calm - N/A   Clear
12:35 AM 46.4 °F 35.6 °F 66% 30.21 in 10.0 mi Calm Calm - N/A   Clear
12:55 AM 46.4 °F 35.6 °F 66% 30.21 in 10.0 mi Calm Calm - N/A   Clear
1:15 AM 46.4 °F 37.4 °F 71% 30.20 in 10.0 mi Calm Calm - N/A   Clear
1:35 AM 44.6 °F 37.4 °F 76% 30.20 in 10.0 mi Calm Calm - N/A   Clear
1:55 AM 44.6 °F 37.4 °F 76% 30.20 in 10.0 mi Calm Calm - N/A   Clear
2:15 AM 44.6 °F 37.4 °F 76% 30.20 in 10.0 mi Calm Calm - N/A   Clear
2:35 AM 42.8 °F 37.4 °F 81% 30.20 in 10.0 mi Calm Calm - N/A   Clear
2:55 AM 42.8 °F 35.6 °F 76% 30.20 in 10.0 mi Calm Calm - N/A   Clear
3:15 AM 42.8 °F 35.6 °F 76% 30.20 in 10.0 mi Calm Calm - N/A   Clear
3:35 AM 42.8 °F 35.6 °F 76% 30.20 in 10.0 mi Calm Calm - N/A   Clear
3:55 AM 42.8 °F 35.6 °F 76% 30.20 in 10.0 mi Calm Calm - N/A   Clear
4:15 AM 41.0 °F 35.6 °F 81% 30.20 in 10.0 mi Calm Calm - N/A   Clear
4:35 AM 41.0 °F 35.6 °F 81% 30.20 in 10.0 mi Calm Calm - N/A   Clear
4:55 AM 41.0 °F 35.6 °F 81% 30.20 in 10.0 mi Calm Calm - N/A   Clear
5:15 AM 41.0 °F 35.6 °F 81% 30.20 in 10.0 mi Calm Calm - N/A   Clear
5:35 AM 41.0 °F 35.6 °F 81% 30.20 in 10.0 mi Calm Calm - N/A   Clear
5:55 AM 41.0 °F 35.6 °F 81% 30.21 in 10.0 mi Calm Calm - N/A   Clear
6:15 AM 41.0 °F 35.6 °F 81% 30.21 in 10.0 mi Calm Calm - N/A   Clear
6:35 AM 44.6 °F 37.4 °F 76% 30.21 in 10.0 mi Calm Calm - N/A   Clear
6:55 AM 46.4 °F 41.0 °F 81% 30.22 in 10.0 mi Calm Calm - N/A   Clear
7:15 AM 50.0 °F 42.8 °F 76% 30.22 in 10.0 mi Calm Calm - N/A   Clear
7:35 AM 53.6 °F 42.8 °F 67% 30.22 in 10.0 mi Calm Calm - N/A   Clear
7:55 AM 57.2 °F 41.0 °F 55% 30.23 in 10.0 mi Calm Calm - N/A   Clear
8:15 AM 62.6 °F 41.0 °F 45% 30.23 in 10.0 mi Calm Calm - N/A   Clear
8:35 AM 64.4 °F 41.0 °F 42% 30.23 in 10.0 mi Calm Calm - N/A   Clear
8:55 AM 68.0 °F 41.0 °F 37% 30.23 in 10.0 mi Calm Calm - N/A   Clear
9:15 AM 69.8 °F 32.0 °F 25% 30.23 in 10.0 mi Calm Calm - N/A   Clear
9:35 AM 69.8 °F 30.2 °F 23% 30.23 in 10.0 mi Calm Calm - N/A   Clear
9:55 AM 69.8 °F 32.0 °F 25% 30.23 in 10.0 mi Calm Calm - N/A   Clear
10:15 AM 71.6 °F 32.0 °F 23% 30.23 in 10.0 mi East 5.8 mph - N/A   Clear
10:35 AM 71.6 °F 32.0 °F 23% 30.23 in 10.0 mi Calm Calm - N/A   Clear
10:55 AM 71.6 °F 32.0 °F 23% 30.23 in 10.0 mi ENE 6.9 mph - N/A   Clear
11:15 AM 73.4 °F 32.0 °F 22% 30.23 in 10.0 mi North 5.8 mph - N/A   Clear
11:35 AM 73.4 °F 32.0 °F 22% 30.23 in 10.0 mi NE 12.7 mph - N/A   Clear
11:55 AM 73.4 °F 32.0 °F 22% 30.24 in 10.0 mi Calm Calm - N/A   Clear
12:15 PM 71.6 °F 33.8 °F 25% 30.24 in 10.0 mi West 5.8 mph 16.1 mph N/A   Mostly Cloudy
12:35 PM 71.6 °F 33.8 °F 25% 30.23 in 10.0 mi WSW 4.6 mph - N/A   Overcast
12:55 PM 71.6 °F 33.8 °F 25% 30.23 in 10.0 mi West 6.9 mph - N/A   Overcast
1:15 PM 71.6 °F 33.8 °F 25% 30.23 in 10.0 mi West 11.5 mph - N/A   Overcast
1:35 PM 71.6 °F 35.6 °F 27% 30.23 in 10.0 mi West 8.1 mph - N/A   Overcast
1:55 PM 69.8 °F 33.8 °F 27% 30.23 in 10.0 mi West 3.5 mph - N/A   Overcast
2:15 PM 71.6 °F 33.8 °F 25% 30.23 in 10.0 mi SSW 3.5 mph - N/A   Overcast
2:35 PM 69.8 °F 32.0 °F 25% 30.22 in 10.0 mi South 4.6 mph - N/A   Overcast
2:55 PM 71.6 °F 33.8 °F 25% 30.22 in 10.0 mi WSW 5.8 mph - N/A   Overcast
3:15 PM 69.8 °F 33.8 °F 27% 30.21 in 10.0 mi SW 4.6 mph - N/A   Overcast
3:35 PM 69.8 °F 32.0 °F 25% 30.21 in 10.0 mi SSW 3.5 mph - N/A   Overcast
3:55 PM 69.8 °F 32.0 °F 25% 30.21 in 10.0 mi SSW 3.5 mph - N/A   Overcast
4:15 PM 71.6 °F 32.0 °F 23% 30.20 in 10.0 mi WSW 4.6 mph 17.3 mph N/A   Mostly Cloudy
4:35 PM 73.4 °F 32.0 °F 22% 30.20 in 10.0 mi West 11.5 mph 20.7 mph N/A   Mostly Cloudy
4:55 PM 73.4 °F 32.0 °F 22% 30.20 in 10.0 mi WSW 9.2 mph - N/A   Scattered Clouds
5:15 PM 71.6 °F 30.2 °F 22% 30.19 in 7.0 mi SW 9.2 mph - N/A   Mostly Cloudy
5:35 PM 71.6 °F 30.2 °F 22% 30.19 in 10.0 mi SW 10.4 mph - N/A   Scattered Clouds
5:55 PM 69.8 °F 30.2 °F 23% 30.19 in 10.0 mi West 12.7 mph 19.6 mph N/A   Clear
6:15 PM 69.8 °F 32.0 °F 25% 30.19 in 10.0 mi WSW 4.6 mph 10.4 mph N/A   Clear
6:35 PM 69.8 °F 32.0 °F 25% 30.20 in 10.0 mi WSW 8.1 mph - N/A   Clear
6:55 PM 68.0 °F 32.0 °F 26% 30.20 in 10.0 mi WSW 5.8 mph - N/A   Clear
7:15 PM 66.2 °F 32.0 °F 28% 30.20 in 10.0 mi WSW 6.9 mph - N/A   Scattered Clouds
7:35 PM 64.4 °F 32.0 °F 30% 30.20 in 10.0 mi SW 4.6 mph - N/A   Scattered Clouds
7:55 PM 62.6 °F 32.0 °F 32% 30.20 in 10.0 mi WSW 4.6 mph - N/A   Clear
8:15 PM 62.6 °F 32.0 °F 32% 30.20 in 10.0 mi SW 5.8 mph - N/A   Clear
8:35 PM 60.8 °F 32.0 °F 34% 30.20 in 10.0 mi WSW 4.6 mph - N/A   Clear
8:55 PM 59.0 °F 33.8 °F 39% 30.21 in 10.0 mi WSW 3.5 mph - N/A   Clear
9:15 PM 57.2 °F 35.6 °F 44% 30.22 in 10.0 mi Calm Calm - N/A   Clear
9:35 PM 55.4 °F 35.6 °F 47% 30.22 in 10.0 mi Calm Calm - N/A   Clear
9:55 PM 55.4 °F 33.8 °F 44% 30.22 in 10.0 mi Calm Calm - N/A   Clear
10:15 PM 53.6 °F 33.8 °F 47% 30.23 in 10.0 mi Calm Calm - N/A   Clear
10:35 PM 53.6 °F 33.8 °F 47% 30.23 in 10.0 mi Calm Calm - N/A   Clear
10:55 PM 51.8 °F 33.8 °F 50% 30.23 in 10.0 mi Calm Calm - N/A   Clear
11:15 PM 51.8 °F 33.8 °F 50% 30.22 in 10.0 mi Calm Calm - N/A   Clear
11:35 PM 51.8 °F 33.8 °F 50% 30.22 in 10.0 mi Calm Calm - N/A   Clear
11:55 PM 50.0 °F 33.8 °F 54% 30.22 in 10.0 mi Calm Calm - N/A   Clear